Weather History for KHVR - April, 2013

Change the Weather History Date:

Saturday, April 20, 2013

  Actual Average Record
Temperature  
Mean Temperature 46 °F 46 °F  
Max Temperature 60 °F 60 °F 91 °F (1980)
Min Temperature 31 °F 32 °F 12 °F (2008)
Degree Days  
Heating Degree Days 19 19  
Month to date heating degree days 534 443  
Since 1 July heating degree days 7397 7561  
Cooling Degree Days 0 0  
Month to date cooling degree days 0 0  
Year to date cooling degree days 0 0  
Moisture  
Dew Point 33 °F    
Average Humidity 70    
Maximum Humidity 100    
Minimum Humidity 40    
Precipitation  
Precipitation 0.04 in 0.03 in 1.49 in (1973)
Month to date precipitation 0.67 0.49  
Year to date precipitation 2.59 1.64  
Snow  
Snow 0.00 in 0.10 in 15.60 in (1967)
Month to date snowfall 3.5 2.4  
Since 1 July snowfall 50.5 36.6  
Snow Depth 0.00 in    
Sea Level Pressure  
Sea Level Pressure 29.86 in    
Wind  
Wind Speed 10 mph (NNW)    
Max Wind Speed 36 mph    
Max Gust Speed 45 mph    
Visibility 6 miles    
Events Fog , Rain , Snow , Thunderstorm    
T = Trace of Precipitation, MM = Missing Value Source: NWS Daily Summary

Daily Weather History Graph

Daily Weather History Graph

Search for Another Location

Airport or City:

Trip Planner

Search our weather history database for the weather conditions in past years. The results will help you decide how hot, cold, wet, or windy it might be!

Date:

Astronomy

Apr. 20, 2013 Rise Set
Actual Time 6:18 AM MDT 8:18 PM MDT
Civil Twilight 5:44 AM MDT 8:51 PM MDT
Nautical Twilight 5:03 AM MDT 9:33 PM MDT
Astronomical Twilight 4:17 AM MDT 10:20 PM MDT
Moon 2:41 PM MDT (4/20) 3:35 AM MDT (4/20)
Length of Visible Light 15h 07m
Length of Day
13h 59m
Waxing Gibbous, 71% of the Moon is Illuminated
Apr 20
Waxing Gibbous
Apr 25
Full
May 2
Last Quarter
May 9
New
May 17
First Quarter

Hourly Weather History & Observations

Time (MDT) Temp. Windchill Dew Point Humidity Pressure Visibility Wind Dir Wind Speed Gust Speed Precip Events Conditions
12:53 AM 37.0 °F 31.6 °F 36.0 °F 96% 29.81 in 8.0 mi South 6.9 mph - 0.00 in   Overcast
1:53 AM 39.0 °F - 37.0 °F 93% 29.81 in 10.0 mi Calm Calm - 0.01 in   Overcast
2:53 AM 37.9 °F 35.5 °F 36.0 °F 93% 29.80 in 10.0 mi NNW 3.5 mph - N/A   Overcast
3:53 AM 36.0 °F 30.3 °F 34.0 °F 93% 29.80 in 10.0 mi West 6.9 mph - N/A   Mostly Cloudy
4:51 AM 30.2 °F 23.4 °F 30.2 °F 100% 29.77 in 2.0 mi SE 6.9 mph - N/A   Scattered Clouds
4:53 AM 30.9 °F 24.3 °F 30.0 °F 96% 29.82 in 0.8 mi ESE 6.9 mph - N/A   Mostly Cloudy
4:59 AM 32.0 °F 26.4 °F 30.2 °F 93% 29.77 in 0.2 mi SE 5.8 mph - N/A Fog Fog
5:32 AM 33.8 °F 30.8 °F 32.0 °F 93% 29.77 in 0.5 mi East 3.5 mph - N/A Fog Fog
5:53 AM 33.1 °F 30.0 °F 32.0 °F 96% 29.81 in 1.2 mi East 3.5 mph - N/A   Overcast
6:01 AM 33.8 °F - 32.0 °F 93% 29.76 in 1.8 mi Calm Calm - N/A   Overcast
6:15 AM 33.8 °F - 32.0 °F 93% 29.77 in 1.2 mi Calm Calm - N/A   Overcast
6:28 AM 33.8 °F - 32.0 °F 93% 29.77 in 0.5 mi Calm Calm - N/A Fog Fog
6:53 AM 33.1 °F - 32.0 °F 96% 29.82 in 1.0 mi Calm Calm - N/A   Overcast
7:03 AM 33.8 °F - 32.0 °F 93% 29.77 in 0.8 mi Calm Calm - N/A   Overcast
7:08 AM 33.8 °F - 33.8 °F 100% 29.77 in 1.5 mi Calm Calm - N/A   Overcast
7:13 AM 33.8 °F - 33.8 °F 100% 29.77 in 3.0 mi Calm Calm - N/A   Overcast
7:53 AM 37.9 °F 34.4 °F 36.0 °F 93% 29.81 in 10.0 mi WSW 4.6 mph - N/A   Overcast
8:53 AM 44.1 °F 39.5 °F 39.0 °F 82% 29.81 in 10.0 mi WSW 8.1 mph - N/A   Overcast
9:53 AM 50.0 °F - 37.0 °F 61% 29.79 in 10.0 mi West 12.7 mph - N/A   Overcast
10:53 AM 55.0 °F - 37.0 °F 51% 29.79 in 10.0 mi WSW 12.7 mph - N/A   Clear
11:53 AM 57.9 °F - 33.1 °F 39% 29.78 in 10.0 mi WNW 16.1 mph 21.9 mph N/A   Mostly Cloudy
12:53 PM 57.9 °F - 35.1 °F 42% 29.76 in 10.0 mi NW 13.8 mph 21.9 mph 0.00 in Rain Light Rain
1:53 PM 55.9 °F - 37.9 °F 51% 29.76 in 10.0 mi West 6.9 mph - 0.00 in Rain Light Rain
2:53 PM 54.0 °F - 37.9 °F 55% 29.77 in 10.0 mi NW 4.6 mph - 0.00 in Rain Light Rain
3:16 PM 48.2 °F - 39.2 °F 71% 29.74 in 8.0 mi West 12.7 mph - 0.01 in Rain , Thunderstorm Light Rain
3:53 PM 53.1 °F - 37.0 °F 55% 29.76 in 10.0 mi WSW 27.6 mph 33.4 mph 0.01 in Thunderstorm Mostly Cloudy
4:20 PM 53.6 °F - 37.4 °F 54% 29.73 in 10.0 mi WSW 9.2 mph 25.3 mph 0.00 in Rain Light Rain
4:53 PM 54.0 °F - 36.0 °F 51% 29.79 in 10.0 mi West 20.7 mph 28.8 mph 0.00 in Rain Light Rain
5:53 PM 46.0 °F 40.6 °F 39.0 °F 76% 29.86 in 10.0 mi NNE 11.5 mph - 0.00 in   Overcast
6:53 PM 43.0 °F 36.8 °F 37.0 °F 80% 29.92 in 10.0 mi NNE 11.5 mph - 0.00 in Rain Light Rain
7:53 PM 39.0 °F 29.9 °F 32.0 °F 76% 29.96 in 10.0 mi NNE 17.3 mph 23.0 mph 0.00 in   Overcast
8:53 PM 37.9 °F 31.5 °F 30.9 °F 76% 30.01 in 10.0 mi NNE 9.2 mph - N/A   Overcast
9:53 PM 34.0 °F 24.6 °F 30.9 °F 89% 30.06 in 3.0 mi North 13.8 mph 24.2 mph 0.00 in Snow Light Snow
10:04 PM 33.8 °F 25.8 °F 30.2 °F 87% 30.03 in 4.0 mi North 10.4 mph 19.6 mph 0.01 in Snow Light Snow
10:16 PM 33.8 °F 25.3 °F 30.2 °F 87% 30.03 in 9.0 mi NNE 11.5 mph - 0.01 in   Overcast
10:32 PM 33.8 °F 27.0 °F 30.2 °F 87% 30.04 in 4.0 mi NNE 8.1 mph - 0.01 in Snow Light Snow
10:42 PM 33.8 °F 27.0 °F 30.2 °F 87% 30.04 in 2.5 mi NNE 8.1 mph - 0.01 in Snow Light Snow
10:53 PM 33.1 °F 26.1 °F 30.9 °F 92% 30.08 in 2.0 mi North 8.1 mph - 0.02 in Snow Light Snow
10:58 PM 33.8 °F 25.8 °F 30.2 °F 87% 30.04 in 3.0 mi North 10.4 mph - 0.00 in Snow Light Snow
11:07 PM 33.8 °F 24.8 °F 30.2 °F 87% 30.06 in 6.0 mi North 12.7 mph - 0.00 in Snow Light Snow
11:22 PM 32.0 °F 20.8 °F 28.4 °F 87% 30.06 in 4.0 mi North 17.3 mph 24.2 mph 0.00 in Snow Light Snow
11:53 PM 33.1 °F 24.4 °F 25.0 °F 72% 30.10 in 10.0 mi NNW 11.5 mph - 0.00 in   Overcast